Location: Hurecourt
(47.9030°N, 6.0653°E)
Time: 08:19:35
(UTC+00:00)

ADEOS II - Pass Details

Date: 14 July 2020
Orbit: 799 x 801 km, 98.5° (Epoch: 14 August)

Event Time Altitude Azimuth Distance (km) Brightness Sun altitude
Rises 02:56:56 0° 8° (N) 3,323 6.2 -7.9°
Reaches altitude 10° 02:59:24 10° 0° (N) 2,388 5.3 -7.6°
Maximum altitude 03:04:13 38° 294° (WNW) 1,217 2.9 -7.0°
Drops below altitude 10° 03:09:01 10° 228° (SW) 2,372 3.8 -6.4°
Enters shadow 03:09:34 - 226° (SW) 2,572 4.0 -6.3°
